Location: ????????
(60.4333°N, 46.4710°E)
Time: 19:27:33
(UTC+00:00)

Cosmos 44 - Pass Details

Date: 25 November 2020
Orbit: 574 x 787 km, 65.1° (Epoch: 16 January)

Event Time Altitude Azimuth Distance (km) Brightness Sun altitude
Rises 13:59:17 0° 303° (WNW) 3,129 7.2 -13.1°
Reaches altitude 10° 14:01:35 10° 302° (WNW) 2,237 6.5 -13.4°
Maximum altitude 14:06:43 73° 219° (SW) 795 3.7 -14.0°
Drops below altitude 10° 14:12:05 10° 135° (SE) 2,329 5.7 -14.6°
Sets 14:14:32 0° 134° (SE) 3,267 6.5 -14.9°
Enters shadow 14:14:46 -1° 134° (SE) 3,356 6.5 -14.9°
